Location: Baumgarten
(49.0970°N, 12.7493°E)
Time: 10:17:44
(UTC+00:00)

N. Korean satellite - Visible Passes

Search period start: 30 September 2020 00:00
Search period end: 10 October 2020 00:00
Orbit: 455 x 503 km, 97.2° (Epoch: 29 September)

Date Brightness Start Highest point End Pass type
(mag) Time Alt. Az. Time Alt. Az. Time Alt. Az.
01 Oct 8.6 04:16:40 10° NNE 04:19:59 32° E 04:23:12 10° SSE visible
02 Oct 9.8 03:51:17 10° NE 03:53:44 17° E 03:56:10 10° SE visible
03 Oct 10.8 17:12:43 10° WSW 17:13:42 11° W 17:14:41 10° WNW visible
04 Oct 7.7 04:31:42 10° NNE 04:35:13 49° E 04:38:38 10° S visible
05 Oct 9.2 04:06:02 10° NE 04:09:02 25° E 04:11:58 10° SSE visible
06 Oct 10.0 03:40:59 10° ENE 03:42:44 13° E 03:44:26 10° ESE visible
07 Oct 6.8 04:46:48 10° NNE 04:50:22 77° ESE 04:53:51 10° S visible
08 Oct 8.3 04:20:54 10° NNE 04:24:13 36° E 04:27:28 10° SSE visible
09 Oct 9.6 03:55:24 10° NE 03:57:58 19° E 04:00:31 10° SE visible
